Registrering Status Plassering
LN-NAZ Operativ Rakkestad - ENRK 

Søk
Nye sertifikater

Sertifikater

Kontakt informasjon

Follo flyklubb.
Postboks 226, N-1401 Ski
Epost: post@follo-flyklubb.no

Tel: 64 87 13 82
Du er her: Hovedside

Hovedside

 

Follo flyklubb er en flyklubb med primærbase på Ski flyplass, og sekundærbase (vinterbase) på Rakkestad flyplass. Disse websidene er ment som en informasjonskanal til flyklubbens medlemmer, og andre som måtte være interessert i Follo flyklubbs virksomhet. Har du kommentarer eller bidrag du ønsker å dele med flyklubben, send oss en melding her.

Har noen av flyklubbens medlemmer forslag til turer, aktiviteter eller kurs- og infokvelder dere ønsker at vi deltar på eller avholder, så gi beskjed til styret via epost.

 

Før flyturen: Ta en sjekk på datoer i sertifikatene dine. Husk at det er forskjell på gyldighetsdato for PPL-sertifikatet og klasserettighet, som f.eks. SEP. Her er noen nyttige spørsmål, og litt om rettigheter her.

ENGM 212020Z VRB02KT 9999 OVC010 M05/M06 Q1027 NOSIG
ENTO 212020Z 34002KT 6000 OVC008 M03/M03 Q1028
ENRY 212020Z VRB01KT 9999 BKN010 M02/M04 Q1029
ENSN 090850Z 20010G22KT 150V240 CAVOK 07/03 Q1000
ENCN 212020Z VRB02KT 9999 SCT012 BKN020 M00/M02 Q1028
ENZV 212020Z VRB02KT 9000 FEW015 M00/M01 Q1027 NOSIG
ENFL 212020Z 08008KT 9999 FEW015 01/M00 Q1028
ENFG 181920Z 35002KT 9999 BKN055 M11/M13 Q1015
ENNO 211750Z VRB02KT 9999 BKN015 M04/M05 Q1027
 

Bruk av myWebLog

Follo flyklubb benytter nå myWebLog, se nyheter for mer informasjon
Logging av flyvning skal foretas ”umiddelbart” etter at flyvning har funnet sted. Da har systemet oppdatert medlemmets konto i myWebLog basert på de opplysningene som er skrevet inn i loggen. Flyets data blir også oppdatert, slik at den neste som skal ut å fly kan få en indikasjon på flyets tilstand, hvor det befinner seg og hvor lenge det er til neste service.